This is the latest recevied weather packets stored in our database for station/object WD4ITN. If no packets are shown the sender has not sent any weather packets the latest 10 day(s).
| Time | Temp. | Humidity | Pressure | Rain* | Wind** | Luminosity | Snow |
|---|---|---|---|---|---|---|---|
| 1787663912 | 16.67° C | 86% | 1020.3 hPa | 0 mm | - | - | - |
| 1787663608 | 16.11° C | 90% | 1020.3 hPa | 0 mm | - | - | - |
| 1787663312 | 15° C | 94% | 1020.4 hPa | 0 mm | - | - | - |
| 1787663009 | 13.89° C | 97% | 1020.4 hPa | 0 mm | - | - | - |
| 1787662701 | 13.33° C | 96% | 1020.4 hPa | 0 mm | - | - | - |
| 1787662397 | 13.33° C | 97% | 1020.5 hPa | 0 mm | - | - | - |
| 1787662101 | 12.78° C | 97% | 1020.5 hPa | 0 mm | - | - | - |
| 1787661801 | 12.78° C | 97% | 1020.5 hPa | 0 mm | - | - | - |
| 1787661521 | 12.22° C | 98% | 1020.5 hPa | 0 mm | - | - | - |
| 1787661212 | 12.22° C | 98% | 1020.4 hPa | 0 mm | - | - | - |
| 1787660909 | 11.67° C | 98% | 1020.4 hPa | 0 mm | - | - | - |
| 1787660609 | 11.11° C | 98% | 1020.3 hPa | 0 mm | - | - | - |
| 1787660314 | 11.11° C | 98% | 1020.3 hPa | 0 mm | - | - | - |
| 1787660009 | 10.56° C | 98% | 1020.3 hPa | 0 mm | - | - | - |
| 1787659707 | 10.56° C | 99% | 1020.3 hPa | 0 mm | - | - | - |
| 1787659406 | 10° C | 98% | 1020.2 hPa | 0 mm | - | - | - |
| 1787659116 | 10° C | 98% | 1020.2 hPa | 0 mm | - | - | - |
| 1787658809 | 9.44° C | 98% | 1020.2 hPa | 0 mm | - | - | - |
| 1787658506 | 9.44° C | 98% | 1020.3 hPa | 0 mm | - | - | - |
| 1787658206 | 9.44° C | 98% | 1020.3 hPa | 0 mm | - | - | - |
| 1787657905 | 8.89° C | 98% | 1020.2 hPa | 0 mm | - | - | - |
| 1787657601 | 8.89° C | 98% | 1020.2 hPa | 0 mm | - | - | - |
| 1787657299 | 9.44° C | 98% | 1020.1 hPa | 0 mm | - | - | - |
| 1787656997 | 8.89° C | 98% | 1020.1 hPa | 0 mm | - | - | - |
| 1787656694 | 8.89° C | 98% | 1019.9 hPa | 0 mm | - | - | - |
* Rain since midnight (hover to see other rain measurements)
** Current wind speed in m/s (hover to see current wind gust speed)